Weather History for KLEX - May, 2013

Change the Weather History Date:

Saturday, May 4, 2013

  Actual Average Record
Temperature  
Mean Temperature 62 °F 61 °F  
Max Temperature 70 °F 71 °F 88 °F (1949)
Min Temperature 54 °F 50 °F 31 °F (1957)
Degree Days  
Heating Degree Days 3 5  
Month to date heating degree days 3 23  
Since 1 July heating degree days 4590 4512  
Cooling Degree Days 0 1  
Month to date cooling degree days 10 4  
Year to date cooling degree days 39 26  
Growing Degree Days 12 (Base 50)    
Moisture  
Dew Point 47 °F    
Average Humidity 69    
Maximum Humidity 100    
Minimum Humidity 37    
Precipitation  
Precipitation 0.54 in 0.17 in 2.02 in (1958)
Month to date precipitation 0.54 0.64  
Year to date precipitation 16.74 14.71  
Snow  
Snow 0.00 in 0.00 in - ()
Month to date snowfall 0.0 0.0  
Since 1 July snowfall 12.5 13.0  
Snow Depth 0.00 in    
Sea Level Pressure  
Sea Level Pressure 29.96 in    
Wind  
Wind Speed 9 mph (ESE)    
Max Wind Speed 20 mph    
Max Gust Speed 25 mph    
Visibility 8 miles    
Events Rain    
T = Trace of Precipitation, MM = Missing Value Source: NWS Daily Summary

Daily Weather History Graph

Daily Weather History Graph

Search for Another Location

Airport or City:

Trip Planner

Search our weather history database for the weather conditions in past years. The results will help you decide how hot, cold, wet, or windy it might be!

Date:

Astronomy

May. 04, 2013 Rise Set
Actual Time 6:38 AM EDT 8:32 PM EDT
Civil Twilight 6:09 AM EDT 9:01 PM EDT
Nautical Twilight 5:35 AM EDT 9:35 PM EDT
Astronomical Twilight 4:57 AM EDT 10:13 PM EDT
Moon 3:31 AM EDT (5/4) 3:33 PM EDT (5/4)
Length of Visible Light 14h 51m
Length of Day
13h 53m
Waning Crescent, 27% of the Moon is Illuminated
May 4
Waning Crescent
May 9
New
May 18
First Quarter
May 25
Full
May 31
Last Quarter

Hourly Weather History & Observations

Time (EDT) Temp. Dew Point Humidity Pressure Visibility Wind Dir Wind Speed Gust Speed Precip Events Conditions
12:54 AM 64.9 °F 37.9 °F 37% 29.96 in 10.0 mi SE 9.2 mph 21.9 mph N/A   Clear
1:54 AM 64.0 °F 39.9 °F 41% 29.96 in 10.0 mi ESE 8.1 mph - N/A   Clear
2:54 AM 62.1 °F 41.0 °F 46% 29.95 in 10.0 mi ESE 9.2 mph - N/A   Clear
3:54 AM 61.0 °F 43.0 °F 52% 29.95 in 10.0 mi East 9.2 mph - N/A   Clear
4:54 AM 61.0 °F 45.0 °F 56% 29.94 in 10.0 mi East 11.5 mph - N/A   Clear
5:54 AM 60.1 °F 44.1 °F 55% 29.94 in 10.0 mi East 12.7 mph - N/A   Clear
6:54 AM 57.9 °F 44.1 °F 60% 29.94 in 10.0 mi East 11.5 mph - N/A   Clear
7:54 AM 60.1 °F 42.1 °F 51% 29.95 in 10.0 mi East 13.8 mph 21.9 mph N/A   Partly Cloudy
8:54 AM 61.0 °F 41.0 °F 48% 29.95 in 10.0 mi ESE 16.1 mph 24.2 mph N/A   Scattered Clouds
9:54 AM 60.1 °F 39.0 °F 46% 29.95 in 10.0 mi ESE 10.4 mph - 0.00 in   Overcast
10:54 AM 62.1 °F 39.9 °F 44% 29.96 in 10.0 mi ESE 9.2 mph - 0.00 in   Mostly Cloudy
11:54 AM 64.9 °F 39.9 °F 40% 29.95 in 10.0 mi SE 6.9 mph - N/A   Partly Cloudy
12:54 PM 66.0 °F 41.0 °F 40% 29.95 in 10.0 mi East 12.7 mph - N/A   Mostly Cloudy
1:54 PM 68.0 °F 43.0 °F 40% 29.94 in 10.0 mi ESE 8.1 mph - N/A   Clear
2:54 PM 66.9 °F 46.0 °F 47% 29.95 in 10.0 mi South 6.9 mph - N/A   Clear
3:54 PM 66.9 °F 51.1 °F 57% 29.93 in 10.0 mi West 9.2 mph - N/A   Scattered Clouds
4:54 PM 64.9 °F 53.1 °F 65% 29.92 in 10.0 mi West 10.4 mph - N/A   Partly Cloudy
5:54 PM 60.1 °F 51.1 °F 72% 29.93 in 10.0 mi West 9.2 mph - N/A   Mostly Cloudy
6:54 PM 57.0 °F 52.0 °F 83% 29.96 in 4.0 mi SW 6.9 mph - 0.01 in Rain Light Rain
7:01 PM 55.4 °F 51.8 °F 88% 29.97 in 1.5 mi WSW 10.4 mph - 0.02 in Rain Heavy Rain
7:18 PM 55.4 °F 51.8 °F 88% 29.97 in 2.5 mi WNW 5.8 mph - 0.16 in Rain Heavy Rain
7:32 PM 55.4 °F 53.6 °F 94% 29.97 in 6.0 mi WNW 4.6 mph - 0.19 in Rain Light Rain
7:54 PM 55.0 °F 53.1 °F 93% 29.97 in 5.0 mi Calm Calm - 0.20 in Rain Rain
8:07 PM 55.4 °F 53.6 °F 94% 29.98 in 2.5 mi Calm Calm - 0.03 in Rain Rain
8:54 PM 54.0 °F 53.1 °F 97% 29.99 in 6.0 mi WNW 4.6 mph - 0.08 in Rain Light Rain
9:54 PM 54.0 °F 53.1 °F 97% 30.00 in 6.0 mi North 4.6 mph - 0.08 in Rain Light Rain
10:54 PM 54.0 °F 53.1 °F 97% 30.01 in 5.0 mi Calm Calm - 0.05 in Rain Rain
11:24 PM 53.6 °F 51.8 °F 94% 30.00 in 5.0 mi North 6.9 mph - 0.05 in Rain Rain
11:54 PM 54.0 °F 53.1 °F 97% 29.99 in 7.0 mi NNE 6.9 mph - 0.09 in Rain Light Rain